| time (UTC) | temp F | wind direction | speed MPH | gust MPH | rain 1hr in | rain 24hr in | rain mn in | humidity % | barometer mb |
| 20260903213007 | 99 | 128 | 13.0 | 9.0 | 0.00 | 0.00 | 0.00 | 42 | 1009.0 |
| 20260903212510 | 99 | 128 | 13.0 | 9.0 | 0.00 | 0.00 | 0.00 | 42 | 1009.0 |
| 20260903212009 | 99 | 128 | 13.0 | 9.0 | 0.00 | 0.00 | 0.00 | 42 | 1009.0 |
| 20260903211506 | 99 | 128 | 13.0 | 9.0 | 0.00 | 0.00 | 0.00 | 42 | 1009.0 |
| 20260903211007 | 99 | 128 | 13.0 | 9.0 | 0.00 | 0.00 | 0.00 | 42 | 1009.0 |
| 20260903210506 | 99 | 128 | 13.0 | 9.0 | 0.00 | 0.00 | 0.00 | 42 | 1009.0 |
| 20260903210007 | 99 | 128 | 13.0 | 9.0 | 0.00 | 0.00 | 0.00 | 42 | 1009.0 |
| 20260903205506 | 99 | 128 | 13.0 | 9.0 | 0.00 | 0.00 | 0.00 | 42 | 1009.0 |
| 20260903205007 | 99 | 128 | 13.0 | 9.0 | 0.00 | 0.00 | 0.00 | 42 | 1009.0 |
| 20260903204506 | 99 | 128 | 13.0 | 10.0 | 0.00 | 0.00 | 0.00 | 42 | 1009.0 |
| 20260903204007 | 99 | 109 | 12.0 | 20.0 | 0.00 | 0.00 | 0.00 | 42 | 1009.0 |
| 20260903203506 | 99 | 140 | 8.0 | 18.0 | 0.00 | 0.00 | 0.00 | 43 | 1009.1 |
| 20260903202506 | 99 | 121 | 12.0 | 20.0 | 0.00 | 0.00 | 0.00 | 43 | 1009.2 |
| 20260903202007 | 98 | 142 | 10.0 | 15.0 | 0.00 | 0.00 | 0.00 | 43 | 1009.1 |
| 20260903201507 | 98 | 112 | 7.0 | 18.0 | 0.00 | 0.00 | 0.00 | 43 | 1009.2 |
| 20260903201007 | 98 | 125 | 10.0 | 21.0 | 0.00 | 0.00 | 0.00 | 44 | 1009.2 |
| 20260903200506 | 98 | 122 | 13.0 | 18.0 | 0.00 | 0.00 | 0.00 | 44 | 1009.2 |
| 20260903200006 | 99 | 132 | 10.0 | 15.0 | 0.00 | 0.00 | 0.00 | 43 | 1009.4 |
| 20260903195507 | 100 | 123 | 12.0 | 17.0 | 0.00 | 0.00 | 0.00 | 38 | 1009.4 |
| 20260903195007 | 98 | 176 | 8.0 | 15.0 | 0.00 | 0.00 | 0.00 | 36 | 1009.5 |
| 20260903194007 | 98 | 161 | 7.0 | 14.0 | 0.00 | 0.00 | 0.00 | 38 | 1009.5 |
| 20260903193506 | 98 | 201 | 6.0 | 14.0 | 0.00 | 0.00 | 0.00 | 38 | 1009.6 |
| 20260903193007 | 99 | 176 | 8.0 | 14.0 | 0.00 | 0.00 | 0.00 | 39 | 1009.6 |
| 20260903192007 | 99 | 209 | 7.0 | 14.0 | 0.00 | 0.00 | 0.00 | 38 | 1009.9 |
| 20260903191507 | 99 | 194 | 5.0 | 13.0 | 0.00 | 0.00 | 0.00 | 39 | 1010.0 |
| 20260903191007 | 98 | 195 | 9.0 | 15.0 | 0.00 | 0.00 | 0.00 | 39 | 1010.1 |
| 20260903190507 | 98 | 198 | 6.0 | 12.0 | 0.00 | 0.00 | 0.00 | 39 | 1010.2 |
| 20260903190006 | 98 | 206 | 2.0 | 8.0 | 0.00 | 0.00 | 0.00 | 40 | 1010.3 |
| 20260903185506 | 98 | 107 | 8.0 | 14.0 | 0.00 | 0.00 | 0.00 | 37 | 1010.4 |
| 20260903185007 | 98 | 143 | 12.0 | 17.0 | 0.00 | 0.00 | 0.00 | 40 | 1010.4 |
| 20260903184507 | 97 | 241 | 6.0 | 12.0 | 0.00 | 0.00 | 0.00 | 40 | 1010.4 |
| 20260903184007 | 98 | 187 | 4.0 | 9.0 | 0.00 | 0.00 | 0.00 | 40 | 1010.5 |
| 20260903182506 | 97 | 180 | 7.0 | 10.0 | 0.00 | 0.00 | 0.00 | 42 | 1010.9 |
| 20260903182007 | 97 | 139 | 10.0 | 14.0 | 0.00 | 0.00 | 0.00 | 42 | 1010.9 |
| 20260903181507 | 97 | 177 | 9.0 | 13.0 | 0.00 | 0.00 | 0.00 | 43 | 1011.0 |
| 20260903181006 | 97 | 205 | 5.0 | 14.0 | 0.00 | 0.00 | 0.00 | 43 | 1011.1 |
| 20260903180506 | 97 | 163 | 7.0 | 15.0 | 0.00 | 0.00 | 0.00 | 45 | 1011.2 |
| 20260903180006 | 97 | 140 | 10.0 | 15.0 | 0.00 | 0.00 | 0.00 | 43 | 1011.3 |
| 20260903175507 | 97 | 172 | 9.0 | 17.0 | 0.00 | 0.00 | 0.00 | 43 | 1011.4 |
| 20260903175006 | 97 | 139 | 9.0 | 16.0 | 0.00 | 0.00 | 0.00 | 45 | 1011.5 |
| 20260903174506 | 96 | 161 | 8.0 | 14.0 | 0.00 | 0.00 | 0.00 | 46 | 1011.7 |
| 20260903173006 | 95 | 213 | 6.0 | 12.0 | 0.00 | 0.00 | 0.00 | 48 | 1011.9 |
| 20260903172007 | 95 | 199 | 6.0 | 12.0 | 0.00 | 0.00 | 0.00 | 48 | 1012.0 |
| 20260903171507 | 95 | 191 | 8.0 | 17.0 | 0.00 | 0.00 | 0.00 | 48 | 1012.1 |
| 20260903171007 | 95 | 184 | 6.0 | 10.0 | 0.00 | 0.00 | 0.00 | 48 | 1012.0 |
| 20260903170507 | 95 | 183 | 7.0 | 13.0 | 0.00 | 0.00 | 0.00 | 48 | 1012.2 |
| 20260903170006 | 95 | 152 | 7.0 | 16.0 | 0.00 | 0.00 | 0.00 | 49 | 1012.2 |
| 20260903165506 | 94 | 136 | 12.0 | 16.0 | 0.00 | 0.00 | 0.00 | 49 | 1012.3 |
| 20260903164506 | 94 | 197 | 6.0 | 12.0 | 0.00 | 0.00 | 0.00 | 49 | 1012.3 |
| 20260903164007 | 94 | 180 | 7.0 | 13.0 | 0.00 | 0.00 | 0.00 | 51 | 1012.3 |
| 20260903163007 | 93 | 212 | 9.0 | 14.0 | 0.00 | 0.00 | 0.00 | 51 | 1012.4 |
| 20260903162507 | 93 | 216 | 7.0 | 13.0 | 0.00 | 0.00 | 0.00 | 51 | 1012.5 |
| 20260903162008 | 92 | 197 | 10.0 | 15.0 | 0.00 | 0.00 | 0.00 | 52 | 1012.5 |
| 20260903161507 | 92 | 188 | 8.0 | 17.0 | 0.00 | 0.00 | 0.00 | 53 | 1012.4 |
| 20260903161008 | 92 | 199 | 8.0 | 13.0 | 0.00 | 0.00 | 0.00 | 53 | 1012.4 |
| 20260903160508 | 91 | 201 | 9.0 | 14.0 | 0.00 | 0.00 | 0.00 | 54 | 1012.4 |
| 20260903160008 | 91 | 208 | 9.0 | 16.0 | 0.00 | 0.00 | 0.00 | 54 | 1012.4 |
| 20260903155507 | 91 | 192 | 10.0 | 16.0 | 0.00 | 0.00 | 0.00 | 54 | 1012.4 |
| 20260903155008 | 91 | 186 | 7.0 | 14.0 | 0.00 | 0.00 | 0.00 | 56 | 1012.3 |
| 20260903154008 | 91 | 187 | 7.0 | 12.0 | 0.00 | 0.00 | 0.00 | 58 | 1012.3 |
| 20260903153508 | 90 | 206 | 9.0 | 16.0 | 0.00 | 0.00 | 0.00 | 58 | 1012.3 |
| 20260903153008 | 89 | 212 | 11.0 | 17.0 | 0.00 | 0.00 | 0.00 | 60 | 1012.3 |
| 20260903152508 | 89 | 202 | 10.0 | 20.0 | 0.00 | 0.00 | 0.00 | 60 | 1012.3 |
| 20260903151508 | 89 | 187 | 10.0 | 16.0 | 0.00 | 0.00 | 0.00 | 62 | 1012.4 |
| 20260903151008 | 88 | 193 | 10.0 | 18.0 | 0.00 | 0.00 | 0.00 | 64 | 1012.3 |
| 20260903150507 | 88 | 220 | 10.0 | 18.0 | 0.00 | 0.00 | 0.00 | 64 | 1012.2 |
| 20260903145508 | 88 | 201 | 10.0 | 15.0 | 0.00 | 0.00 | 0.00 | 66 | 1012.3 |
| 20260903145008 | 88 | 195 | 10.0 | 15.0 | 0.00 | 0.00 | 0.00 | 67 | 1012.3 |
| 20260903144507 | 87 | 207 | 11.0 | 17.0 | 0.00 | 0.00 | 0.00 | 68 | 1012.4 |
| 20260903144008 | 87 | 200 | 12.0 | 21.0 | 0.00 | 0.00 | 0.00 | 69 | 1012.3 |
| 20260903143507 | 86 | 200 | 12.0 | 17.0 | 0.00 | 0.00 | 0.00 | 71 | 1012.4 |
| 20260903143008 | 86 | 198 | 10.0 | 15.0 | 0.00 | 0.00 | 0.00 | 74 | 1012.4 |
| 20260903142508 | 86 | 206 | 10.0 | 14.0 | 0.00 | 0.00 | 0.00 | 75 | 1012.5 |
| 20260903142008 | 86 | 200 | 9.0 | 15.0 | 0.00 | 0.00 | 0.00 | 77 | 1012.4 |
| 20260903141507 | 85 | 201 | 8.0 | 13.0 | 0.00 | 0.00 | 0.00 | 79 | 1012.4 |
| 20260903141008 | 85 | 193 | 10.0 | 16.0 | 0.00 | 0.00 | 0.00 | 79 | 1012.4 |
| 20260903140508 | 85 | 198 | 9.0 | 18.0 | 0.00 | 0.00 | 0.00 | 79 | 1012.4 |
| 20260903140008 | 85 | 180 | 6.0 | 14.0 | 0.00 | 0.00 | 0.00 | 80 | 1012.4 |
| 20260903135508 | 85 | 185 | 8.0 | 15.0 | 0.00 | 0.00 | 0.00 | 79 | 1012.4 |
| 20260903135008 | 85 | 192 | 7.0 | 10.0 | 0.00 | 0.00 | 0.00 | 80 | 1012.3 |
| 20260903134507 | 84 | 195 | 6.0 | 12.0 | 0.00 | 0.00 | 0.00 | 81 | 1012.3 |
| 20260903134008 | 84 | 168 | 6.0 | 10.0 | 0.00 | 0.00 | 0.00 | 83 | 1012.4 |
| 20260903133508 | 83 | 194 | 7.0 | 13.0 | 0.00 | 0.00 | 0.00 | 84 | 1012.4 |
| 20260903133008 | 83 | 185 | 7.0 | 12.0 | 0.00 | 0.00 | 0.00 | 84 | 1012.4 |
| 20260903132507 | 83 | 197 | 7.0 | 12.0 | 0.00 | 0.00 | 0.00 | 85 | 1012.4 |
| 20260903132008 | 83 | 187 | 9.0 | 13.0 | 0.00 | 0.00 | 0.00 | 85 | 1012.3 |
| 20260903131507 | 82 | 192 | 7.0 | 12.0 | 0.00 | 0.00 | 0.00 | 86 | 1012.2 |
| 20260903131008 | 82 | 194 | 8.0 | 12.0 | 0.00 | 0.00 | 0.00 | 86 | 1012.3 |
| 20260903130508 | 82 | 189 | 7.0 | 9.0 | 0.00 | 0.00 | 0.00 | 87 | 1012.4 |
| 20260903130007 | 82 | 175 | 6.0 | 10.0 | 0.00 | 0.00 | 0.00 | 87 | 1012.4 |
| 20260903125510 | 81 | 184 | 5.0 | 10.0 | 0.00 | 0.00 | 0.00 | 88 | 1012.4 |
| 20260903125007 | 81 | 181 | 5.0 | 9.0 | 0.00 | 0.00 | 0.00 | 88 | 1012.3 |
| 20260903124507 | 81 | 172 | 3.0 | 8.0 | 0.00 | 0.00 | 0.00 | 88 | 1012.3 |
| 20260903124009 | 81 | 177 | 4.0 | 8.0 | 0.00 | 0.00 | 0.00 | 89 | 1012.4 |
| 20260903123507 | 81 | 179 | 5.0 | 9.0 | 0.00 | 0.00 | 0.00 | 89 | 1012.4 |
| 20260903123007 | 81 | 171 | 5.0 | 7.0 | 0.00 | 0.00 | 0.00 | 89 | 1012.4 |
| 20260903122507 | 80 | 174 | 3.0 | 8.0 | 0.00 | 0.00 | 0.00 | 89 | 1012.3 |
| 20260903122008 | 80 | 180 | 4.0 | 8.0 | 0.00 | 0.00 | 0.00 | 89 | 1012.1 |
| 20260903121507 | 81 | 177 | 5.0 | 8.0 | 0.00 | 0.00 | 0.00 | 89 | 1012.2 |
| 20260903121011 | 81 | 182 | 5.0 | 8.0 | 0.00 | 0.00 | 0.00 | 89 | 1012.2 |
| 20260903120507 | 81 | 186 | 5.0 | 9.0 | 0.00 | 0.00 | 0.00 | 89 | 1012.1 |
| 20260903115507 | 81 | 169 | 4.0 | 8.0 | 0.00 | 0.00 | 0.00 | 89 | 1012.1 |
| 20260903115007 | 81 | 171 | 4.0 | 7.0 | 0.00 | 0.00 | 0.00 | 89 | 1012.1 |
| 20260903114507 | 81 | 178 | 5.0 | 8.0 | 0.00 | 0.00 | 0.00 | 89 | 1012.2 |
| 20260903113507 | 81 | 178 | 4.0 | 8.0 | 0.00 | 0.00 | 0.00 | 88 | 1012.2 |
| 20260903113008 | 81 | 182 | 5.0 | 8.0 | 0.00 | 0.00 | 0.00 | 88 | 1012.2 |
| 20260903112008 | 81 | 177 | 5.0 | 9.0 | 0.00 | 0.00 | 0.00 | 88 | 1012.2 |
| 20260903111507 | 81 | 177 | 5.0 | 9.0 | 0.00 | 0.00 | 0.00 | 88 | 1012.3 |
| 20260903111007 | 81 | 176 | 5.0 | 8.0 | 0.00 | 0.00 | 0.00 | 88 | 1012.3 |
| 20260903110507 | 81 | 181 | 5.0 | 8.0 | 0.00 | 0.00 | 0.00 | 88 | 1012.3 |
| 20260903110007 | 81 | 176 | 6.0 | 9.0 | 0.00 | 0.00 | 0.00 | 88 | 1012.2 |
| 20260903105507 | 81 | 183 | 5.0 | 8.0 | 0.00 | 0.00 | 0.00 | 88 | 1012.2 |
| 20260903105007 | 81 | 183 | 5.0 | 9.0 | 0.00 | 0.00 | 0.00 | 88 | 1012.3 |
| 20260903104507 | 81 | 186 | 6.0 | 9.0 | 0.00 | 0.00 | 0.00 | 88 | 1012.3 |
| 20260903104008 | 81 | 178 | 5.0 | 8.0 | 0.00 | 0.00 | 0.00 | 88 | 1012.3 |
| 20260903103507 | 82 | 182 | 5.0 | 9.0 | 0.00 | 0.00 | 0.00 | 88 | 1012.3 |
| 20260903103007 | 82 | 171 | 5.0 | 8.0 | 0.00 | 0.00 | 0.00 | 87 | 1012.2 |
| 20260903102507 | 82 | 175 | 4.0 | 9.0 | 0.00 | 0.00 | 0.00 | 87 | 1012.2 |
| 20260903102008 | 82 | 170 | 4.0 | 8.0 | 0.00 | 0.00 | 0.00 | 87 | 1012.2 |
| 20260903101007 | 82 | 189 | 5.0 | 8.0 | 0.00 | 0.00 | 0.00 | 87 | 1012.3 |
| 20260903100507 | 82 | 192 | 5.0 | 9.0 | 0.00 | 0.00 | 0.00 | 87 | 1012.2 |
| 20260903100007 | 82 | 187 | 5.0 | 12.0 | 0.00 | 0.00 | 0.00 | 87 | 1012.1 |
| 20260903095507 | 82 | 193 | 6.0 | 10.0 | 0.00 | 0.00 | 0.00 | 87 | 1012.0 |
| 20260903095008 | 82 | 177 | 6.0 | 10.0 | 0.00 | 0.00 | 0.00 | 87 | 1012.0 |
| 20260903094507 | 82 | 188 | 6.0 | 8.0 | 0.00 | 0.00 | 0.00 | 87 | 1012.0 |
| 20260903094008 | 82 | 191 | 6.0 | 9.0 | 0.00 | 0.00 | 0.00 | 87 | 1012.0 |
| 20260903093007 | 82 | 187 | 6.0 | 9.0 | 0.00 | 0.00 | 0.00 | 86 | 1012.1 |
| 20260903092507 | 82 | 176 | 6.0 | 9.0 | 0.00 | 0.00 | 0.00 | 86 | 1012.1 |
| 20260903092008 | 82 | 178 | 5.0 | 9.0 | 0.00 | 0.00 | 0.00 | 85 | 1012.2 |
| 20260903091507 | 83 | 176 | 5.0 | 12.0 | 0.00 | 0.00 | 0.00 | 85 | 1012.3 |
| 20260903091007 | 83 | 174 | 6.0 | 9.0 | 0.00 | 0.00 | 0.00 | 85 | 1012.2 |
| 20260903085020 | 83 | 196 | 7.0 | 10.0 | 0.00 | 0.00 | 0.00 | 85 | 1012.1 |
| 20260903084507 | 83 | 197 | 7.0 | 13.0 | 0.00 | 0.00 | 0.00 | 85 | 1012.2 |
| 20260903084007 | 83 | 209 | 7.0 | 14.0 | 0.00 | 0.00 | 0.00 | 85 | 1012.2 |
| 20260903083508 | 83 | 201 | 7.0 | 14.0 | 0.00 | 0.00 | 0.00 | 85 | 1012.2 |
| 20260903083007 | 83 | 203 | 6.0 | 12.0 | 0.00 | 0.00 | 0.00 | 85 | 1012.2 |
| 20260903082507 | 83 | 188 | 6.0 | 9.0 | 0.00 | 0.00 | 0.00 | 85 | 1012.2 |
| 20260903082007 | 83 | 189 | 6.0 | 13.0 | 0.00 | 0.00 | 0.00 | 85 | 1012.2 |
| 20260903080007 | 83 | 191 | 6.0 | 8.0 | 0.00 | 0.00 | 0.00 | 84 | 1012.4 |
| 20260903075506 | 83 | 190 | 6.0 | 8.0 | 0.00 | 0.00 | 0.00 | 84 | 1012.4 |
| 20260903075007 | 83 | 195 | 7.0 | 10.0 | 0.00 | 0.00 | 0.00 | 84 | 1012.5 |
| 20260903074507 | 83 | 187 | 6.0 | 9.0 | 0.00 | 0.00 | 0.00 | 84 | 1012.6 |
| 20260903074007 | 83 | 186 | 6.0 | 9.0 | 0.00 | 0.00 | 0.00 | 84 | 1012.5 |
| 20260903073507 | 83 | 184 | 6.0 | 10.0 | 0.00 | 0.00 | 0.00 | 84 | 1012.4 |
| 20260903072008 | 83 | 179 | 7.0 | 14.0 | 0.00 | 0.00 | 0.00 | 83 | 1012.4 |
| 20260903071507 | 83 | 191 | 8.0 | 14.0 | 0.00 | 0.00 | 0.00 | 83 | 1012.4 |
| 20260903070507 | 84 | 178 | 7.0 | 10.0 | 0.00 | 0.00 | 0.00 | 83 | 1012.6 |
| 20260903065507 | 83 | 180 | 7.0 | 12.0 | 0.00 | 0.00 | 0.00 | 82 | 1012.6 |
| 20260903064507 | 84 | 177 | 5.0 | 9.0 | 0.00 | 0.00 | 0.00 | 82 | 1012.6 |
| 20260903064008 | 83 | 166 | 8.0 | 14.0 | 0.00 | 0.00 | 0.00 | 82 | 1012.6 |
| 20260903063506 | 83 | 186 | 7.0 | 13.0 | 0.00 | 0.00 | 0.00 | 82 | 1012.6 |
| 20260903062008 | 84 | 183 | 6.0 | 10.0 | 0.00 | 0.00 | 0.00 | 83 | 1012.7 |
| 20260903061506 | 84 | 182 | 7.0 | 10.0 | 0.00 | 0.00 | 0.00 | 83 | 1012.7 |
| 20260903061009 | 83 | 188 | 7.0 | 12.0 | 0.00 | 0.00 | 0.00 | 83 | 1012.7 |
| 20260903060507 | 84 | 181 | 6.0 | 12.0 | 0.00 | 0.00 | 0.00 | 83 | 1012.6 |
| 20260903060007 | 84 | 174 | 8.0 | 13.0 | 0.00 | 0.00 | 0.00 | 83 | 1012.6 |
| 20260903052007 | 84 | 178 | 7.0 | 14.0 | 0.00 | 0.00 | 0.00 | 82 | 1012.8 |
| 20260903051507 | 84 | 171 | 7.0 | 14.0 | 0.00 | 0.00 | 0.00 | 82 | 1012.8 |
| 20260903051007 | 84 | 183 | 7.0 | 13.0 | 0.00 | 0.00 | 0.00 | 82 | 1012.7 |
| 20260903050508 | 84 | 170 | 7.0 | 14.0 | 0.00 | 0.00 | 0.00 | 82 | 1012.7 |
| 20260903050008 | 84 | 178 | 7.0 | 13.0 | 0.00 | 0.00 | 0.00 | 82 | 1012.8 |
| 20260903045507 | 84 | 180 | 7.0 | 14.0 | 0.00 | 0.00 | 0.00 | 82 | 1012.8 |
| 20260903045008 | 84 | 177 | 9.0 | 17.0 | 0.00 | 0.00 | 0.00 | 82 | 1012.8 |
| 20260903044507 | 84 | 169 | 9.0 | 14.0 | 0.00 | 0.00 | 0.00 | 82 | 1012.6 |
| 20260903044007 | 84 | 176 | 9.0 | 13.0 | 0.00 | 0.00 | 0.00 | 82 | 1012.6 |
| 20260903043507 | 84 | 182 | 9.0 | 15.0 | 0.00 | 0.00 | 0.00 | 82 | 1012.6 |
| 20260903043007 | 84 | 164 | 9.0 | 17.0 | 0.00 | 0.00 | 0.00 | 82 | 1012.7 |
| 20260903042507 | 84 | 166 | 8.0 | 15.0 | 0.00 | 0.00 | 0.00 | 81 | 1012.7 |
| 20260903042008 | 84 | 169 | 8.0 | 16.0 | 0.00 | 0.00 | 0.00 | 81 | 1012.7 |
| 20260903041507 | 85 | 153 | 10.0 | 16.0 | 0.00 | 0.00 | 0.00 | 81 | 1012.6 |
| 20260903041007 | 85 | 176 | 8.0 | 14.0 | 0.00 | 0.00 | 0.00 | 81 | 1012.6 |
| 20260903040510 | 84 | 174 | 9.0 | 15.0 | 0.00 | 0.00 | 0.00 | 81 | 1012.6 |
| 20260903040009 | 85 | 174 | 7.0 | 14.0 | 0.00 | 0.00 | 0.00 | 80 | 1012.7 |
| 20260903035006 | 85 | 164 | 9.0 | 14.0 | 0.00 | 0.00 | 0.00 | 80 | 1012.4 |
| 20260903034007 | 85 | 164 | 8.0 | 15.0 | 0.00 | 0.00 | 0.00 | 79 | 1012.3 |
| 20260903033506 | 85 | 169 | 9.0 | 14.0 | 0.00 | 0.00 | 0.00 | 79 | 1012.3 |
| 20260903033007 | 85 | 167 | 8.0 | 14.0 | 0.00 | 0.00 | 0.00 | 79 | 1012.3 |
| 20260903032506 | 85 | 153 | 12.0 | 20.0 | 0.00 | 0.00 | 0.00 | 79 | 1012.3 |
| 20260903032008 | 85 | 156 | 9.0 | 15.0 | 0.00 | 0.00 | 0.00 | 78 | 1012.2 |
| 20260903031507 | 85 | 157 | 12.0 | 18.0 | 0.00 | 0.00 | 0.00 | 78 | 1012.1 |
| 20260903031008 | 85 | 165 | 9.0 | 15.0 | 0.00 | 0.00 | 0.00 | 78 | 1012.1 |
| 20260903030507 | 85 | 166 | 10.0 | 17.0 | 0.00 | 0.00 | 0.00 | 78 | 1012.0 |
| 20260903030007 | 85 | 160 | 11.0 | 16.0 | 0.00 | 0.00 | 0.00 | 77 | 1011.9 |
| 20260903025506 | 85 | 163 | 10.0 | 16.0 | 0.00 | 0.00 | 0.00 | 77 | 1011.8 |
| 20260903025007 | 85 | 167 | 8.0 | 16.0 | 0.00 | 0.00 | 0.00 | 77 | 1011.7 |
| 20260903024508 | 85 | 164 | 10.0 | 16.0 | 0.00 | 0.00 | 0.00 | 77 | 1011.6 |
| 20260903024008 | 86 | 168 | 9.0 | 16.0 | 0.00 | 0.00 | 0.00 | 76 | 1011.6 |
| 20260903023508 | 86 | 169 | 9.0 | 16.0 | 0.00 | 0.00 | 0.00 | 76 | 1011.5 |
| 20260903023008 | 86 | 158 | 12.0 | 17.0 | 0.00 | 0.00 | 0.00 | 76 | 1011.5 |
| 20260903022507 | 86 | 161 | 10.0 | 20.0 | 0.00 | 0.00 | 0.00 | 76 | 1011.4 |
| 20260903022007 | 86 | 168 | 12.0 | 22.0 | 0.00 | 0.00 | 0.00 | 75 | 1011.4 |
| 20260903021007 | 86 | 151 | 9.0 | 14.0 | 0.00 | 0.00 | 0.00 | 74 | 1011.1 |
| 20260903020507 | 86 | 154 | 12.0 | 17.0 | 0.00 | 0.00 | 0.00 | 74 | 1011.0 |
| 20260903020008 | 87 | 164 | 10.0 | 16.0 | 0.00 | 0.00 | 0.00 | 73 | 1010.9 |
| 20260903015506 | 87 | 159 | 12.0 | 21.0 | 0.00 | 0.00 | 0.00 | 72 | 1010.8 |
| 20260903014506 | 87 | 175 | 10.0 | 17.0 | 0.00 | 0.00 | 0.00 | 70 | 1010.7 |
| 20260903014007 | 87 | 179 | 9.0 | 15.0 | 0.00 | 0.00 | 0.00 | 69 | 1010.7 |
| 20260903013007 | 88 | 153 | 9.0 | 15.0 | 0.00 | 0.00 | 0.00 | 68 | 1010.7 |
| 20260903012507 | 88 | 157 | 10.0 | 17.0 | 0.00 | 0.00 | 0.00 | 68 | 1010.6 |
| 20260903012009 | 88 | 170 | 11.0 | 18.0 | 0.00 | 0.00 | 0.00 | 67 | 1010.6 |
| 20260903011008 | 89 | 169 | 10.0 | 17.0 | 0.00 | 0.00 | 0.00 | 65 | 1010.4 |
| 20260903010508 | 89 | 155 | 14.0 | 20.0 | 0.00 | 0.00 | 0.00 | 64 | 1010.3 |
| 20260903010007 | 89 | 153 | 13.0 | 18.0 | 0.00 | 0.00 | 0.00 | 63 | 1010.3 |
| 20260903005510 | 90 | 156 | 12.0 | 20.0 | 0.00 | 0.00 | 0.00 | 62 | 1010.3 |
| 20260903005009 | 90 | 162 | 10.0 | 17.0 | 0.00 | 0.00 | 0.00 | 61 | 1010.3 |
| 20260903004508 | 90 | 162 | 13.0 | 18.0 | 0.00 | 0.00 | 0.00 | 62 | 1010.3 |
| 20260903004009 | 91 | 146 | 14.0 | 20.0 | 0.00 | 0.00 | 0.00 | 61 | 1010.2 |
| 20260903003512 | 91 | 154 | 12.0 | 18.0 | 0.00 | 0.00 | 0.00 | 60 | 1010.2 |
| 20260903003009 | 91 | 153 | 10.0 | 18.0 | 0.00 | 0.00 | 0.00 | 60 | 1010.2 |
| 20260903002509 | 92 | 164 | 11.0 | 18.0 | 0.00 | 0.00 | 0.00 | 59 | 1010.3 |
| 20260903002009 | 92 | 147 | 13.0 | 20.0 | 0.00 | 0.00 | 0.00 | 59 | 1010.2 |
| 20260903001509 | 93 | 146 | 12.0 | 20.0 | 0.00 | 0.00 | 0.00 | 58 | 1010.2 |
| 20260903001008 | 93 | 145 | 14.0 | 20.0 | 0.00 | 0.00 | 0.00 | 58 | 1010.2 |
| 20260903000509 | 93 | 146 | 14.0 | 21.0 | 0.00 | 0.00 | 0.00 | 56 | 1010.3 |
| 20260903000009 | 94 | 139 | 13.0 | 21.0 | 0.00 | 0.00 | 0.00 | 54 | 1010.3 |
| 20260902235509 | 94 | 148 | 15.0 | 22.0 | 0.00 | 0.00 | 0.00 | 52 | 1010.3 |
| 20260902235009 | 94 | 150 | 12.0 | 18.0 | 0.00 | 0.00 | 0.00 | 51 | 1010.3 |
| 20260902234506 | 94 | 134 | 16.0 | 21.0 | 0.00 | 0.00 | 0.00 | 50 | 1010.2 |
| 20260902234007 | 95 | 134 | 13.0 | 20.0 | 0.00 | 0.00 | 0.00 | 48 | 1010.2 |
| 20260902233507 | 95 | 148 | 13.0 | 20.0 | 0.00 | 0.00 | 0.00 | 48 | 1010.1 |
| 20260902233007 | 95 | 137 | 13.0 | 18.0 | 0.00 | 0.00 | 0.00 | 47 | 1010.1 |
| 20260902232508 | 95 | 139 | 15.0 | 20.0 | 0.00 | 0.00 | 0.00 | 47 | 1010.0 |
| 20260902232011 | 96 | 133 | 14.0 | 21.0 | 0.00 | 0.00 | 0.00 | 47 | 1009.9 |
| 20260902231507 | 96 | 131 | 16.0 | 22.0 | 0.00 | 0.00 | 0.00 | 47 | 1009.9 |
| 20260902231007 | 96 | 134 | 15.0 | 22.0 | 0.00 | 0.00 | 0.00 | 46 | 1009.9 |
| 20260902230509 | 97 | 140 | 14.0 | 21.0 | 0.00 | 0.00 | 0.00 | 46 | 1009.9 |
| 20260902225506 | 96 | 144 | 14.0 | 20.0 | 0.00 | 0.00 | 0.00 | 45 | 1009.9 |
| 20260902225006 | 96 | 137 | 14.0 | 18.0 | 0.00 | 0.00 | 0.00 | 45 | 1009.8 |
| 20260902224507 | 96 | 138 | 13.0 | 18.0 | 0.00 | 0.00 | 0.00 | 45 | 1009.9 |
| 20260902224008 | 98 | 130 | 13.0 | 18.0 | 0.00 | 0.00 | 0.00 | 45 | 1009.8 |
| 20260902223008 | 98 | 139 | 13.0 | 20.0 | 0.00 | 0.00 | 0.00 | 46 | 1009.8 |
| 20260902222507 | 98 | 140 | 10.0 | 18.0 | 0.00 | 0.00 | 0.00 | 46 | 1009.8 |
| 20260902222008 | 98 | 161 | 13.0 | 22.0 | 0.00 | 0.00 | 0.00 | 46 | 1009.8 |
| 20260902221506 | 98 | 145 | 14.0 | 18.0 | 0.00 | 0.00 | 0.00 | 45 | 1009.8 |
| 20260902221008 | 98 | 127 | 14.0 | 20.0 | 0.00 | 0.00 | 0.00 | 46 | 1009.8 |
| 20260902220507 | 99 | 157 | 13.0 | 20.0 | 0.00 | 0.00 | 0.00 | 45 | 1009.8 |
| 20260902220006 | 98 | 150 | 13.0 | 20.0 | 0.00 | 0.00 | 0.00 | 46 | 1009.9 |
| 20260902215507 | 99 | 124 | 14.0 | 21.0 | 0.00 | 0.00 | 0.00 | 45 | 1009.9 |
| 20260902215007 | 99 | 129 | 15.0 | 21.0 | 0.00 | 0.00 | 0.00 | 45 | 1009.8 |
| 20260902214010 | 100 | 104 | 12.0 | 17.0 | 0.00 | 0.00 | 0.00 | 44 | 1009.9 |
| 20260902213507 | 100 | 162 | 10.0 | 17.0 | 0.00 | 0.00 | 0.00 | 41 | 1010.0 |